Eagle Lake, FL

2:58 PM EST on February 08, 2016 (GMT -0500)
Bartow Municipal

Weather History for KBOW - August, 2012

Change the Weather History Date:

Friday, August 3, 2012

  Actual Average Record
Temperature  
Mean Temperature 81 °F -  
Max Temperature 93 °F 93 °F 97 °F (1956)
Min Temperature 69 °F 72 °F 66 °F (1975)
Cooling Degree Days 16    
Growing Degree Days 31 (Base 50)    
Moisture  
Dew Point 71 °F    
Average Humidity 87    
Maximum Humidity 100    
Minimum Humidity 41    
Precipitation  
Precipitation 0.38 in - - ()
Sea Level Pressure  
Sea Level Pressure 30.02 in    
Wind  
Wind Speed 2 mph (SSE)    
Max Wind Speed 23 mph    
Max Gust Speed 31 mph    
Visibility 9 miles    
Events Rain , Thunderstorm    
Averages and records for this station are not official NWS values.
T = Trace of Precipitation, MM = Missing Value Source: NWS Daily Summary

Daily Weather History Graph

Daily Weather History Graph

Search for Another Location

Airport or City:

Trip Planner

Search our weather history database for the weather conditions in past years. The results will help you decide how hot, cold, wet, or windy it might be!

Date:

Astronomy

Aug. 03, 2012 Rise Set
Actual Time 6:51 AM EDT 8:14 PM EDT
Civil Twilight 6:25 AM EDT 8:40 PM EDT
Nautical Twilight 5:55 AM EDT 9:10 PM EDT
Astronomical Twilight 5:24 AM EDT 9:41 PM EDT
Moon 9:10 PM EDT (8/3) 8:18 AM EDT (8/3)
Length of Visible Light 14h 14m
Length of Day
13h 23m
Full, 97% of the Moon is Illuminated
Aug 3
Full
Aug 9
Last Quarter
Aug 17
New
Aug 24
First Quarter
Aug 31
Full

Hourly Weather History & Observations

Time (EDT) Temp. Heat Index Dew Point Humidity Pressure Visibility Wind Dir Wind Speed Gust Speed Precip Events Conditions
12:35 AM 77.0 °F - 71.6 °F 83% 30.01 in 10.0 mi South 3.5 mph - N/A   Scattered Clouds
12:55 AM 77.0 °F - 69.8 °F 78% 30.01 in 10.0 mi Calm Calm - N/A   Partly Cloudy
1:15 AM 77.0 °F - 69.8 °F 78% 30.01 in 10.0 mi SSW 3.5 mph - N/A   Clear
1:35 AM 75.2 °F - 69.8 °F 83% 30.00 in 10.0 mi Calm Calm - N/A   Clear
1:55 AM 75.2 °F - 69.8 °F 83% 30.00 in 10.0 mi Calm Calm - N/A   Clear
2:15 AM 75.2 °F - 69.8 °F 83% 29.99 in 10.0 mi Calm Calm - N/A   Clear
2:35 AM 73.4 °F - 71.6 °F 94% 29.98 in 10.0 mi Calm Calm - N/A   Partly Cloudy
3:15 AM 73.4 °F - 71.6 °F 94% 29.97 in 10.0 mi SE 4.6 mph - N/A   Clear
3:35 AM 73.4 °F - 71.6 °F 94% 29.96 in 10.0 mi Calm Calm - N/A   Clear
3:55 AM 73.4 °F - 69.8 °F 88% 29.96 in 10.0 mi Calm Calm - N/A   Partly Cloudy
4:15 AM 71.6 °F - 69.8 °F 94% 29.96 in 10.0 mi SE 4.6 mph - N/A   Partly Cloudy
4:35 AM 71.6 °F - 69.8 °F 94% 29.97 in 10.0 mi Calm Calm - N/A   Clear
4:55 AM 73.4 °F - 69.8 °F 88% 29.97 in 10.0 mi Calm Calm - N/A   Clear
5:15 AM 71.6 °F - 69.8 °F 94% 29.97 in 10.0 mi Calm Calm - N/A   Partly Cloudy
5:35 AM 71.6 °F - 69.8 °F 94% 29.97 in 10.0 mi Calm Calm - N/A   Partly Cloudy
5:55 AM 73.4 °F - 69.8 °F 88% 29.97 in 10.0 mi ESE 4.6 mph - N/A   Partly Cloudy
6:15 AM 69.8 °F - 69.8 °F 100% 29.98 in 10.0 mi Calm Calm - N/A   Partly Cloudy
6:35 AM 71.6 °F - 71.6 °F 100% 29.99 in 10.0 mi Calm Calm - N/A   Clear
6:55 AM 71.6 °F - 69.8 °F 94% 29.99 in 10.0 mi Calm Calm - N/A   Clear
7:15 AM 71.6 °F - 69.8 °F 94% 30.00 in 10.0 mi Calm Calm - N/A   Clear
7:30 AM 71.6 °F - 69.8 °F 94% 30.01 in 12.0 mi Calm Calm - N/A   Scattered Clouds
7:50 AM 73.4 °F - 69.8 °F 88% 30.02 in 12.0 mi Calm Calm - N/A   Scattered Clouds
8:50 AM 78.8 °F - 71.6 °F 78% 30.04 in 12.0 mi West 3.5 mph - N/A   Scattered Clouds
9:50 AM 82.4 °F 86.3 °F 69.8 °F 66% 30.05 in 8.0 mi Calm Calm - N/A   Haze
10:50 AM 87.8 °F 92.6 °F 69.8 °F 55% 30.05 in 10.0 mi Calm Calm - N/A   Scattered Clouds
11:50 AM 87.8 °F 92.6 °F 69.8 °F 55% 30.05 in 8.0 mi Calm Calm - N/A   Haze
12:51 PM 87.8 °F 92.6 °F 69.8 °F 55% 30.05 in 10.0 mi Calm Calm - N/A   Mostly Cloudy
1:51 PM 89.6 °F 94.7 °F 69.8 °F 52% 30.02 in 8.0 mi South 4.6 mph - N/A   Mostly Cloudy
2:50 PM 89.6 °F 93.4 °F 68.0 °F 49% 30.01 in 8.0 mi SSW 3.5 mph - N/A   Scattered Clouds
3:04 PM 93.2 °F 96.2 °F 66.2 °F 41% 30.00 in 8.0 mi SE 10.4 mph 19.6 mph N/A Thunderstorm Thunderstorm
3:50 PM 89.6 °F 93.4 °F 68.0 °F 49% 30.00 in 8.0 mi NE 9.2 mph - N/A Thunderstorm Thunderstorm
4:50 PM 84.2 °F 88.4 °F 69.8 °F 62% 30.02 in 8.0 mi NNE 23.0 mph 31.1 mph N/A Thunderstorm Thunderstorm
5:35 PM 71.6 °F - 71.6 °F 100% 30.05 in 1.5 mi SSE 4.6 mph 31.1 mph 0.36 in Rain , Thunderstorm Thunderstorms and Rain
5:55 PM 71.6 °F - 71.6 °F 100% 30.06 in 6.0 mi SSW 10.4 mph - 0.37 in Thunderstorm Mostly Cloudy
6:15 PM 71.6 °F - 71.6 °F 100% 30.06 in 8.0 mi WSW 5.8 mph - N/A Rain , Thunderstorm Light Rain
6:35 PM 71.6 °F - 71.6 °F 100% 30.06 in 5.0 mi SW 5.8 mph - 0.01 in Rain Light Rain
6:55 PM 71.6 °F - 71.6 °F 100% 30.05 in 5.0 mi Calm Calm - 0.01 in Rain Light Rain
7:15 PM 71.6 °F - 71.6 °F 100% 30.04 in 9.0 mi SSE 4.6 mph - N/A   Light Drizzle
7:35 PM 71.6 °F - 71.6 °F 100% 30.03 in 10.0 mi ESE 4.6 mph - N/A   Partly Cloudy
7:55 PM 71.6 °F - 71.6 °F 100% 30.01 in 10.0 mi East 8.1 mph - N/A   Clear
8:15 PM 71.6 °F - 71.6 °F 100% 30.01 in 9.0 mi NE 5.8 mph - N/A   Clear
8:35 PM 71.6 °F - 71.6 °F 100% 30.02 in 10.0 mi East 4.6 mph - N/A   Partly Cloudy
8:55 PM 71.6 °F - 71.6 °F 100% 30.02 in 10.0 mi ENE 4.6 mph - N/A   Clear
9:15 PM 73.4 °F - 73.4 °F 100% 30.04 in 10.0 mi East 3.5 mph - N/A   Partly Cloudy
9:35 PM 73.4 °F - 73.4 °F 100% 30.04 in 10.0 mi West 5.8 mph - N/A   Partly Cloudy
9:55 PM 73.4 °F - 73.4 °F 100% 30.05 in 10.0 mi WSW 5.8 mph - N/A   Partly Cloudy
10:15 PM 73.4 °F - 73.4 °F 100% 30.06 in 10.0 mi Calm Calm - N/A   Partly Cloudy
10:35 PM 73.4 °F - 73.4 °F 100% 30.06 in 10.0 mi NW 3.5 mph - N/A   Partly Cloudy
10:55 PM 73.4 °F - 73.4 °F 100% 30.06 in 10.0 mi Calm Calm - N/A   Partly Cloudy
11:15 PM 73.4 °F - 71.6 °F 94% 30.06 in 10.0 mi Calm Calm - N/A   Partly Cloudy
11:35 PM 73.4 °F - 71.6 °F 94% 30.05 in 10.0 mi Calm Calm - N/A   Partly Cloudy
11:55 PM 71.6 °F - 71.6 °F 100% 30.05 in 7.0 mi Calm Calm - N/A   Partly Cloudy